Time,TemperatureF,DewpointF,PressureIn,WindDirection,WindDirectionDegrees,WindSpeedMPH,WindSpeedGustMPH,Humidity,HourlyPrecipIn,Conditions,Clouds,dailyrainin,SoftwareType,DateUTC
2013-10-07 00:01:00,64.4,34.7,29.65,NNE,18,0.0,0.0,33,0.00,,---,0.00,VWS V14.01,2013-10-07 04:01:00,
2013-10-07 00:06:00,64.2,35.3,29.65,North,353,0.0,0.0,34,0.00,,---,0.00,VWS V14.01,2013-10-07 04:06:00,
2013-10-07 00:11:00,64.2,35.3,29.65,North,353,0.0,0.0,34,0.00,,---,0.00,VWS V14.01,2013-10-07 04:11:00,
2013-10-07 00:16:00,64.0,35.1,29.65,North,353,0.0,0.0,34,0.00,,---,0.00,VWS V14.01,2013-10-07 04:16:00,
2013-10-07 00:21:00,63.9,35.0,29.65,North,353,0.0,0.0,34,0.00,,---,0.00,VWS V14.01,2013-10-07 04:21:00,
2013-10-07 00:26:00,63.9,35.0,29.65,North,353,0.0,0.0,34,0.00,,---,0.00,VWS V14.01,2013-10-07 04:26:00,
2013-10-07 00:31:00,63.9,35.0,29.65,NW,315,0.0,0.0,34,0.00,,---,0.00,VWS V14.01,2013-10-07 04:31:00,
2013-10-07 00:36:00,64.0,35.1,29.65,NW,315,0.0,0.0,34,0.00,,---,0.00,VWS V14.01,2013-10-07 04:36:00,
2013-10-07 00:41:00,64.0,35.1,29.65,North,353,0.0,0.0,34,0.00,,---,0.00,VWS V14.01,2013-10-07 04:41:00,
2013-10-07 00:46:00,64.0,35.1,29.62,North,357,0.0,0.0,34,0.00,,---,0.00,VWS V14.01,2013-10-07 04:46:00,
2013-10-07 00:51:00,64.2,35.3,29.62,NW,316,0.0,0.0,34,0.00,,---,0.00,VWS V14.01,2013-10-07 04:51:00,
2013-10-07 00:56:00,64.2,35.3,29.62,NW,307,0.0,0.0,34,0.00,,---,0.00,VWS V14.01,2013-10-07 04:56:00,
2013-10-07 01:01:00,64.2,35.3,29.62,NNE,19,0.0,0.0,34,0.00,,---,0.00,VWS V14.01,2013-10-07 05:01:00,
2013-10-07 01:06:00,64.2,35.3,29.62,NW,305,0.0,0.0,34,0.00,,---,0.00,VWS V14.01,2013-10-07 05:06:00,
2013-10-07 01:11:00,64.2,35.3,29.62,WNW,303,0.0,0.0,34,0.00,,---,0.00,VWS V14.01,2013-10-07 05:11:00,
2013-10-07 01:16:00,64.4,34.7,29.62,North,6,0.0,0.0,33,0.00,,---,0.00,VWS V14.01,2013-10-07 05:16:00,
2013-10-07 01:21:00,64.4,34.7,29.62,ENE,74,0.0,0.0,33,0.00,,---,0.00,VWS V14.01,2013-10-07 05:21:00,
2013-10-07 01:26:00,64.4,34.7,29.62,NNE,15,0.0,0.0,33,0.00,,---,0.00,VWS V14.01,2013-10-07 05:26:00,
2013-10-07 01:31:00,64.4,34.7,29.62,NNW,346,0.0,0.0,33,0.00,,---,0.00,VWS V14.01,2013-10-07 05:31:00,
2013-10-07 01:36:00,64.4,34.7,29.62,NNW,345,0.0,0.0,33,0.00,,---,0.00,VWS V14.01,2013-10-07 05:36:00,
2013-10-07 01:41:00,64.4,34.7,29.62,NNW,348,0.0,0.0,33,0.00,,---,0.00,VWS V14.01,2013-10-07 05:41:00,
2013-10-07 01:46:00,64.2,35.3,29.62,NNE,30,0.0,0.0,34,0.00,,---,0.00,VWS V14.01,2013-10-07 05:46:00,
2013-10-07 01:51:00,64.2,35.3,29.62,North,353,0.0,0.0,34,0.00,,---,0.00,VWS V14.01,2013-10-07 05:51:00,
2013-10-07 01:56:00,64.0,35.1,29.62,NNE,16,0.0,0.0,34,0.00,,---,0.00,VWS V14.01,2013-10-07 05:56:00,
2013-10-07 02:01:00,64.0,35.1,29.62,ENE,61,2.7,2.7,34,0.00,,---,0.00,VWS V14.01,2013-10-07 06:01:00,
2013-10-07 02:06:00,63.9,35.0,29.62,North,357,0.0,0.0,34,0.00,,---,0.00,VWS V14.01,2013-10-07 06:06:00,
2013-10-07 02:11:00,63.9,35.0,29.62,North,0,0.0,0.0,34,0.00,,---,0.00,VWS V14.01,2013-10-07 06:11:00,
2013-10-07 02:16:00,63.9,35.0,29.59,NE,38,0.0,0.0,34,0.00,,---,0.00,VWS V14.01,2013-10-07 06:16:00,
2013-10-07 02:21:00,64.0,35.1,29.59,NW,304,0.0,0.0,34,0.00,,---,0.00,VWS V14.01,2013-10-07 06:21:00,
2013-10-07 02:26:00,64.2,35.3,29.59,NNE,29,0.0,0.0,34,0.00,,---,0.00,VWS V14.01,2013-10-07 06:26:00,
2013-10-07 02:31:00,64.2,35.3,29.59,NE,54,0.0,0.0,34,0.00,,---,0.00,VWS V14.01,2013-10-07 06:31:00,
2013-10-07 02:36:00,64.2,35.3,29.59,NNW,343,0.0,0.0,34,0.00,,---,0.00,VWS V14.01,2013-10-07 06:36:00,
2013-10-07 02:41:00,64.4,34.7,29.59,North,349,0.0,2.7,33,0.00,,---,0.00,VWS V14.01,2013-10-07 06:41:00,
2013-10-07 02:46:00,64.4,34.7,29.59,North,11,0.0,2.7,33,0.00,,---,0.00,VWS V14.01,2013-10-07 06:46:00,
2013-10-07 02:51:00,64.6,34.8,29.59,NNE,17,0.0,0.0,33,0.00,,---,0.00,VWS V14.01,2013-10-07 06:51:00,
2013-10-07 02:56:00,64.9,35.2,29.59,West,263,0.0,2.7,33,0.00,,---,0.00,VWS V14.01,2013-10-07 06:56:00,
2013-10-07 03:01:00,65.1,35.3,29.59,NW,304,0.0,0.0,33,0.00,,---,0.00,VWS V14.01,2013-10-07 07:01:00,
2013-10-07 03:06:00,65.5,35.6,29.59,NNE,26,4.0,4.0,33,0.00,,---,0.00,VWS V14.01,2013-10-07 07:06:00,
2013-10-07 03:11:00,65.7,35.8,29.59,ENE,68,0.0,0.0,33,0.00,,---,0.00,VWS V14.01,2013-10-07 07:11:00,
2013-10-07 03:16:00,65.7,35.8,29.59,North,357,0.0,0.0,33,0.00,,---,0.00,VWS V14.01,2013-10-07 07:16:00,
2013-10-07 03:21:00,65.7,35.8,29.59,NE,39,0.0,0.0,33,0.00,,---,0.00,VWS V14.01,2013-10-07 07:21:00,
2013-10-07 03:26:00,65.7,35.8,29.59,NE,41,0.0,4.9,33,0.00,,---,0.00,VWS V14.01,2013-10-07 07:26:00,
2013-10-07 03:31:00,65.7,35.8,29.59,WSW,238,0.0,0.0,33,0.00,,---,0.00,VWS V14.01,2013-10-07 07:31:00,
2013-10-07 03:36:00,65.7,35.8,29.59,ENE,67,3.1,3.6,33,0.00,,---,0.00,VWS V14.01,2013-10-07 07:36:00,
2013-10-07 03:41:00,65.7,35.8,29.59,NE,56,0.0,0.0,33,0.00,,---,0.00,VWS V14.01,2013-10-07 07:41:00,
2013-10-07 03:46:00,65.7,35.8,29.57,North,350,0.0,0.0,33,0.00,,---,0.00,VWS V14.01,2013-10-07 07:46:00,
2013-10-07 03:51:00,65.8,36.0,29.57,NW,325,3.1,4.9,33,0.00,,---,0.00,VWS V14.01,2013-10-07 07:51:00,
2013-10-07 03:56:00,65.7,35.8,29.57,NNE,24,0.0,0.0,33,0.00,,---,0.00,VWS V14.01,2013-10-07 07:56:00,
2013-10-07 04:01:00,65.5,35.6,29.57,NNE,17,0.0,0.0,33,0.00,,---,0.00,VWS V14.01,2013-10-07 08:01:00,
2013-10-07 04:06:00,65.5,35.6,29.57,NNE,22,2.2,2.2,33,0.00,,---,0.00,VWS V14.01,2013-10-07 08:06:00,
2013-10-07 04:11:00,65.5,35.6,29.57,NNE,20,0.0,0.0,33,0.00,,---,0.00,VWS V14.01,2013-10-07 08:11:00,
2013-10-07 04:16:00,65.5,35.6,29.57,NE,37,0.0,0.0,33,0.00,,---,0.00,VWS V14.01,2013-10-07 08:16:00,
2013-10-07 04:21:00,65.5,35.6,29.57,WNW,290,2.7,5.4,33,0.00,,---,0.00,VWS V14.01,2013-10-07 08:21:00,
2013-10-07 04:26:00,65.8,36.0,29.57,West,276,0.0,0.0,33,0.00,,---,0.00,VWS V14.01,2013-10-07 08:26:00,
2013-10-07 04:31:00,65.8,36.0,29.57,NNW,328,0.0,0.0,33,0.00,,---,0.00,VWS V14.01,2013-10-07 08:31:00,
2013-10-07 04:36:00,66.0,36.1,29.57,WSW,241,0.0,0.0,33,0.00,,---,0.00,VWS V14.01,2013-10-07 08:36:00,
2013-10-07 04:41:00,66.0,36.1,29.57,West,267,0.0,0.0,33,0.00,,---,0.00,VWS V14.01,2013-10-07 08:41:00,
2013-10-07 04:46:00,66.2,36.3,29.57,NW,305,0.0,0.0,33,0.00,,---,0.00,VWS V14.01,2013-10-07 08:46:00,
2013-10-07 04:51:00,66.2,36.3,29.57,NNE,28,2.7,4.0,33,0.00,,---,0.00,VWS V14.01,2013-10-07 08:51:00,
2013-10-07 04:56:00,66.4,36.4,29.57,NE,46,2.7,3.6,33,0.00,,---,0.00,VWS V14.01,2013-10-07 08:56:00,
2013-10-07 05:00:00,66.6,36.6,29.57,NW,319,0.0,0.0,33,0.00,,---,0.00,VWS V14.01,2013-10-07 09:00:00,
2013-10-07 05:05:00,66.6,36.6,29.57,NE,50,3.1,3.1,33,0.00,,---,0.00,VWS V14.01,2013-10-07 09:05:00,
2013-10-07 05:10:00,66.6,36.6,29.57,North,2,0.0,0.0,33,0.00,,---,0.00,VWS V14.01,2013-10-07 09:10:00,
2013-10-07 05:15:00,66.6,36.6,29.57,West,272,0.0,0.0,33,0.00,,---,0.00,VWS V14.01,2013-10-07 09:15:00,
2013-10-07 05:20:00,66.4,36.4,29.57,WNW,295,3.1,4.0,33,0.00,,---,0.00,VWS V14.01,2013-10-07 09:20:00,
2013-10-07 05:25:00,66.4,36.4,29.57,North,0,0.0,0.0,33,0.00,,---,0.00,VWS V14.01,2013-10-07 09:25:00,
2013-10-07 05:30:00,66.2,36.3,29.57,North,0,0.0,0.0,33,0.00,,---,0.00,VWS V14.01,2013-10-07 09:30:00,
2013-10-07 05:35:00,64.6,34.8,29.57,East,89,2.7,2.7,33,0.00,,---,0.00,VWS V14.01,2013-10-07 09:35:00,
2013-10-07 05:40:00,62.8,34.0,29.57,WNW,288,2.2,4.0,34,0.00,,---,0.00,VWS V14.01,2013-10-07 09:40:00,
2013-10-07 05:45:00,61.0,32.4,29.59,NNE,21,2.7,3.6,34,0.00,,---,0.00,VWS V14.01,2013-10-07 09:45:00,
2013-10-07 05:50:00,59.4,31.7,29.59,West,278,3.1,3.1,35,0.00,,---,0.00,VWS V14.01,2013-10-07 09:50:00,
2013-10-07 05:55:00,58.3,30.8,29.59,WSW,244,0.0,0.0,35,0.00,,---,0.00,VWS V14.01,2013-10-07 09:55:00,
2013-10-07 06:00:00,56.8,29.5,29.62,ENE,62,0.0,3.1,35,0.00,,---,0.00,VWS V14.01,2013-10-07 10:00:00,
2013-10-07 06:05:00,56.3,29.0,29.62,WNW,293,0.0,5.4,35,0.00,,---,0.00,VWS V14.01,2013-10-07 10:05:00,
2013-10-07 06:10:00,55.8,28.5,29.62,SW,219,2.2,3.1,35,0.00,,---,0.00,VWS V14.01,2013-10-07 10:10:00,
2013-10-07 06:15:00,55.6,29.1,29.62,SW,219,0.0,0.0,36,0.00,,---,0.00,VWS V14.01,2013-10-07 10:15:00,
2013-10-07 06:20:00,55.2,28.8,29.62,SW,219,0.0,0.0,36,0.00,,---,0.00,VWS V14.01,2013-10-07 10:20:00,
2013-10-07 06:25:00,55.2,28.8,29.62,WNW,283,0.0,0.0,36,0.04,,---,0.04,VWS V14.01,2013-10-07 10:25:00,
2013-10-07 06:30:00,55.2,28.8,29.62,North,0,0.0,0.0,36,0.04,,---,0.04,VWS V14.01,2013-10-07 10:30:00,
2013-10-07 06:35:00,55.2,28.8,29.62,West,275,0.0,0.0,36,0.04,,---,0.04,VWS V14.01,2013-10-07 10:35:00,
2013-10-07 06:40:00,54.9,28.4,29.62,North,2,0.0,3.6,36,0.04,,---,0.04,VWS V14.01,2013-10-07 10:40:00,
2013-10-07 06:45:00,54.5,28.1,29.59,NNW,341,5.4,5.4,36,0.08,,---,0.08,VWS V14.01,2013-10-07 10:45:00,
2013-10-07 06:50:00,54.5,28.1,29.59,North,9,0.0,0.0,36,0.08,,---,0.08,VWS V14.01,2013-10-07 10:50:00,
2013-10-07 06:55:00,54.7,28.3,29.59,North,9,0.0,0.0,36,0.08,,---,0.08,VWS V14.01,2013-10-07 10:55:00,
2013-10-07 07:00:00,54.5,28.1,29.62,NNE,15,0.0,0.0,36,0.08,,---,0.08,VWS V14.01,2013-10-07 11:00:00,
2013-10-07 07:05:00,54.3,28.0,29.62,West,273,0.0,0.0,36,0.08,,---,0.08,VWS V14.01,2013-10-07 11:05:00,
2013-10-07 07:33:00,54.3,28.0,29.62,NW,316,2.2,2.7,36,0.12,,---,0.16,VWS V14.01,2013-10-07 11:33:00,
2013-10-07 07:38:00,54.1,27.8,29.62,West,278,3.1,3.1,36,0.12,,---,0.16,VWS V14.01,2013-10-07 11:38:00,
2013-10-07 07:43:00,54.0,27.6,29.62,WNW,296,0.0,0.0,36,0.12,,---,0.20,VWS V14.01,2013-10-07 11:43:00,
2013-10-07 07:48:00,54.1,27.8,29.62,SW,231,0.0,0.0,36,0.12,,---,0.20,VWS V14.01,2013-10-07 11:48:00,
2013-10-07 07:53:00,53.8,27.5,29.62,East,88,2.2,4.0,36,0.12,,---,0.00,VWS V14.01,2013-10-07 11:53:00,
2013-10-07 07:58:00,53.2,27.7,29.62,WSW,237,0.0,0.0,37,0.12,,---,0.20,VWS V14.01,2013-10-07 11:58:00,
2013-10-07 08:03:00,52.9,27.3,29.65,South,170,3.1,3.1,37,0.12,,---,0.20,VWS V14.01,2013-10-07 12:03:00,
2013-10-07 08:08:00,52.5,27.0,29.65,SSW,208,0.0,4.0,37,0.12,,---,0.24,VWS V14.01,2013-10-07 12:08:00,
2013-10-07 08:13:00,52.5,27.0,29.65,SSW,206,0.0,0.0,37,0.12,,---,0.24,VWS V14.01,2013-10-07 12:13:00,
2013-10-07 08:18:00,52.2,26.7,29.62,West,261,0.0,0.0,37,0.12,,---,0.24,VWS V14.01,2013-10-07 12:18:00,
2013-10-07 08:23:00,52.0,26.5,29.62,WSW,243,2.7,2.7,37,0.16,,---,0.28,VWS V14.01,2013-10-07 12:23:00,
2013-10-07 08:28:00,52.0,26.5,29.62,NW,319,0.0,0.0,37,0.12,,---,0.28,VWS V14.01,2013-10-07 12:28:00,
2013-10-07 08:33:00,51.6,26.2,29.62,SW,214,0.0,3.1,37,0.12,,---,0.28,VWS V14.01,2013-10-07 12:33:00,
2013-10-07 08:38:00,51.8,26.4,29.62,SW,221,2.2,2.2,37,0.12,,---,0.28,VWS V14.01,2013-10-07 12:38:00,
2013-10-07 08:43:00,51.8,26.4,29.62,North,0,0.0,2.7,37,0.12,,---,0.28,VWS V14.01,2013-10-07 12:43:00,
2013-10-07 08:48:00,51.8,26.4,29.65,West,274,0.0,0.0,37,0.08,,---,0.28,VWS V14.01,2013-10-07 12:48:00,
2013-10-07 08:53:00,51.6,26.2,29.65,NE,51,2.7,2.7,37,0.12,,---,0.31,VWS V14.01,2013-10-07 12:53:00,
2013-10-07 08:58:00,51.4,26.0,29.65,SW,220,0.0,0.0,37,0.12,,---,0.31,VWS V14.01,2013-10-07 12:58:00,
2013-10-07 09:03:00,51.4,26.0,29.65,NNE,16,0.0,0.0,37,0.12,,---,0.31,VWS V14.01,2013-10-07 13:03:00,
2013-10-07 09:08:00,51.6,26.2,29.65,NW,318,2.2,4.0,37,0.08,,---,0.31,VWS V14.01,2013-10-07 13:08:00,
2013-10-07 09:13:00,51.6,26.2,29.65,WSW,246,0.0,0.0,37,0.08,,---,0.31,VWS V14.01,2013-10-07 13:13:00,
2013-10-07 09:18:00,51.4,26.0,29.65,SW,233,0.0,0.0,37,0.08,,---,0.31,VWS V14.01,2013-10-07 13:18:00,
2013-10-07 09:23:00,51.4,26.0,29.65,SSW,212,3.1,3.1,37,0.08,,---,0.31,VWS V14.01,2013-10-07 13:23:00,
2013-10-07 09:28:00,51.3,25.9,29.65,NNE,14,0.0,0.0,37,0.04,,---,0.31,VWS V14.01,2013-10-07 13:28:00,
2013-10-07 09:33:00,51.4,26.0,29.65,SW,216,3.1,3.1,37,0.04,,---,0.31,VWS V14.01,2013-10-07 13:33:00,
2013-10-07 09:38:00,51.3,25.9,29.65,West,275,2.7,2.7,37,0.04,,---,0.31,VWS V14.01,2013-10-07 13:38:00,
2013-10-07 09:43:00,51.1,25.7,29.65,SW,235,0.0,0.0,37,0.04,,---,0.31,VWS V14.01,2013-10-07 13:43:00,
2013-10-07 09:48:00,51.1,25.7,29.65,WSW,242,2.7,2.7,37,0.04,,---,0.31,VWS V14.01,2013-10-07 13:48:00,
2013-10-07 09:53:00,51.1,25.7,29.65,NNE,18,0.0,2.2,37,0.04,,---,0.35,VWS V14.01,2013-10-07 13:53:00,
2013-10-07 09:58:00,51.1,25.7,29.65,SW,223,0.0,0.0,37,0.04,,---,0.35,VWS V14.01,2013-10-07 13:58:00,
2013-10-07 10:03:00,51.1,25.7,29.65,SW,217,0.0,0.0,37,0.04,,---,0.35,VWS V14.01,2013-10-07 14:03:00,
2013-10-07 10:08:00,51.3,25.9,29.65,WNW,299,0.0,0.0,37,0.04,,---,0.35,VWS V14.01,2013-10-07 14:08:00,
2013-10-07 10:13:00,51.3,25.9,29.65,SSW,207,0.0,0.0,37,0.04,,---,0.35,VWS V14.01,2013-10-07 14:13:00,
2013-10-07 10:18:00,51.3,25.9,29.65,SSW,207,0.0,0.0,37,0.04,,---,0.35,VWS V14.01,2013-10-07 14:18:00,
2013-10-07 10:23:00,51.3,25.9,29.65,North,11,0.0,0.0,37,0.04,,---,0.35,VWS V14.01,2013-10-07 14:23:00,
2013-10-07 10:28:00,51.3,25.9,29.65,NE,38,0.0,0.0,37,0.04,,---,0.35,VWS V14.01,2013-10-07 14:28:00,
2013-10-07 10:33:00,51.4,26.0,29.65,SW,230,0.0,0.0,37,0.04,,---,0.35,VWS V14.01,2013-10-07 14:33:00,
2013-10-07 10:38:00,51.4,26.0,29.65,SW,225,2.7,4.5,37,0.04,,---,0.35,VWS V14.01,2013-10-07 14:38:00,
2013-10-07 10:43:00,51.3,25.9,29.65,NNW,338,0.0,0.0,37,0.04,,---,0.35,VWS V14.01,2013-10-07 14:43:00,
2013-10-07 10:48:00,51.3,25.9,29.65,NE,37,0.0,3.6,37,0.04,,---,0.35,VWS V14.01,2013-10-07 14:48:00,
2013-10-07 10:53:00,51.3,25.9,29.65,NE,47,2.2,3.1,37,0.00,,---,0.35,VWS V14.01,2013-10-07 14:53:00,
2013-10-07 10:58:00,51.3,25.9,29.65,SW,215,3.1,5.4,37,0.00,,---,0.35,VWS V14.01,2013-10-07 14:58:00,
2013-10-07 11:03:00,51.4,26.0,29.65,NE,52,0.0,4.9,37,0.00,,---,0.35,VWS V14.01,2013-10-07 15:03:00,
2013-10-07 11:08:00,51.4,26.0,29.65,SW,223,0.0,0.0,37,0.00,,---,0.35,VWS V14.01,2013-10-07 15:08:00,
2013-10-07 11:13:00,51.6,26.2,29.65,SW,232,3.1,4.0,37,0.00,,---,0.35,VWS V14.01,2013-10-07 15:13:00,
2013-10-07 11:17:00,51.6,26.2,29.65,West,277,3.6,3.6,37,0.00,,---,0.35,VWS V14.01,2013-10-07 15:17:00,
2013-10-07 11:22:00,51.6,26.2,29.65,WSW,243,0.0,2.7,37,0.00,,---,0.35,VWS V14.01,2013-10-07 15:22:00,
2013-10-07 11:27:00,51.4,26.0,29.65,West,280,3.1,3.1,37,0.00,,---,0.35,VWS V14.01,2013-10-07 15:27:00,
2013-10-07 11:32:00,51.4,26.0,29.68,NNW,344,0.0,7.2,37,0.00,,---,0.35,VWS V14.01,2013-10-07 15:32:00,
2013-10-07 11:37:00,51.3,25.9,29.68,North,4,2.2,3.6,37,0.00,,---,0.35,VWS V14.01,2013-10-07 15:37:00,
2013-10-07 11:42:00,51.1,25.7,29.68,West,265,2.7,3.6,37,0.00,,---,0.35,VWS V14.01,2013-10-07 15:42:00,
2013-10-07 11:47:00,50.9,25.6,29.68,WNW,299,0.0,0.0,37,0.00,,---,0.35,VWS V14.01,2013-10-07 15:47:00,
2013-10-07 11:52:00,51.3,25.9,29.68,North,353,0.0,0.0,37,0.00,,---,0.35,VWS V14.01,2013-10-07 15:52:00,
2013-10-07 11:57:00,51.1,25.7,29.68,WNW,287,2.2,2.2,37,0.00,,---,0.35,VWS V14.01,2013-10-07 15:57:00,
2013-10-07 12:02:00,50.7,25.4,29.68,ESE,106,0.0,0.0,37,0.00,,---,0.35,VWS V14.01,2013-10-07 16:02:00,
2013-10-07 12:07:00,50.2,24.9,29.68,WSW,247,0.0,0.0,37,0.00,,---,0.35,VWS V14.01,2013-10-07 16:07:00,
2013-10-07 12:12:00,50.2,24.9,29.68,NW,308,6.3,7.2,37,0.00,,---,0.35,VWS V14.01,2013-10-07 16:12:00,
2013-10-07 12:17:00,49.8,24.6,29.68,NNE,14,4.0,5.4,37,0.00,,---,0.35,VWS V14.01,2013-10-07 16:17:00,
2013-10-07 12:22:00,49.5,24.3,29.68,WNW,285,4.5,4.5,37,0.00,,---,0.35,VWS V14.01,2013-10-07 16:22:00,
2013-10-07 12:27:00,49.1,24.0,29.68,NW,326,7.2,7.2,37,0.00,,---,0.35,VWS V14.01,2013-10-07 16:27:00,
2013-10-07 12:32:00,48.9,23.8,29.68,NNW,345,4.0,5.8,37,0.00,,---,0.35,VWS V14.01,2013-10-07 16:32:00,
2013-10-07 12:37:00,48.9,23.8,29.68,West,270,0.0,0.0,37,0.00,,---,0.35,VWS V14.01,2013-10-07 16:37:00,
2013-10-07 12:42:00,48.9,23.8,29.68,WSW,251,0.0,3.6,37,0.00,,---,0.35,VWS V14.01,2013-10-07 16:42:00,
2013-10-07 12:47:00,48.7,23.6,29.68,SSW,207,3.1,4.5,37,0.00,,---,0.35,VWS V14.01,2013-10-07 16:47:00,
2013-10-07 12:52:00,48.7,23.6,29.68,NW,306,0.0,5.4,37,0.00,,---,0.35,VWS V14.01,2013-10-07 16:52:00,
2013-10-07 12:57:00,48.6,23.5,29.68,SW,219,0.0,3.1,37,0.00,,---,0.35,VWS V14.01,2013-10-07 16:57:00,
2013-10-07 13:02:00,48.6,23.5,29.68,SW,219,2.2,6.3,37,0.00,,---,0.35,VWS V14.01,2013-10-07 17:02:00,
2013-10-07 13:07:00,48.7,23.6,29.68,SW,222,0.0,0.0,37,0.00,,---,0.35,VWS V14.01,2013-10-07 17:07:00,
2013-10-07 13:12:00,49.1,24.0,29.68,NNW,339,0.0,0.0,37,0.00,,---,0.35,VWS V14.01,2013-10-07 17:12:00,
2013-10-07 13:17:00,49.1,24.0,29.68,NNW,330,0.0,5.8,37,0.00,,---,0.35,VWS V14.01,2013-10-07 17:17:00,
2013-10-07 13:22:00,49.1,24.0,29.68,NNW,345,0.0,2.7,37,0.00,,---,0.35,VWS V14.01,2013-10-07 17:22:00,
2013-10-07 13:27:00,49.6,24.5,29.68,SW,233,4.0,5.8,37,0.00,,---,0.35,VWS V14.01,2013-10-07 17:27:00,
2013-10-07 13:32:00,49.8,24.6,29.68,SSW,213,0.0,0.0,37,0.00,,---,0.35,VWS V14.01,2013-10-07 17:32:00,
2013-10-07 13:37:00,50.2,24.9,29.68,WNW,284,0.0,3.1,37,0.00,,---,0.35,VWS V14.01,2013-10-07 17:37:00,
2013-10-07 13:42:00,50.0,24.8,29.68,WNW,282,3.1,3.1,37,0.00,,---,0.35,VWS V14.01,2013-10-07 17:42:00,
2013-10-07 13:47:00,50.7,25.4,29.68,WSW,252,0.0,0.0,37,0.00,,---,0.35,VWS V14.01,2013-10-07 17:47:00,
2013-10-07 13:52:00,51.3,25.9,29.68,WSW,237,2.2,2.7,37,0.00,,---,0.35,VWS V14.01,2013-10-07 17:52:00,
2013-10-07 13:57:00,51.4,26.0,29.68,SSW,198,3.1,3.1,37,0.00,,---,0.35,VWS V14.01,2013-10-07 17:57:00,
2013-10-07 14:02:00,51.4,26.0,29.68,WSW,241,3.1,4.9,37,0.00,,---,0.35,VWS V14.01,2013-10-07 18:02:00,
2013-10-07 14:07:00,51.1,25.7,29.68,NE,52,3.1,3.6,37,0.00,,---,0.35,VWS V14.01,2013-10-07 18:07:00,
2013-10-07 14:12:00,51.4,26.0,29.68,NNW,327,4.0,4.0,37,0.00,,---,0.35,VWS V14.01,2013-10-07 18:12:00,
2013-10-07 14:17:00,52.2,26.0,29.68,North,357,3.6,4.9,36,0.00,,---,0.35,VWS V14.01,2013-10-07 18:17:00,
2013-10-07 14:22:00,52.9,26.7,29.68,WSW,248,0.0,0.0,36,0.00,,---,0.35,VWS V14.01,2013-10-07 18:22:00,
2013-10-07 14:27:00,52.2,26.0,29.68,NNW,336,3.1,3.6,36,0.00,,---,0.35,VWS V14.01,2013-10-07 18:27:00,
2013-10-07 14:32:00,52.3,26.2,29.68,North,357,3.6,4.0,36,0.00,,---,0.35,VWS V14.01,2013-10-07 18:32:00,
2013-10-07 14:37:00,52.7,26.5,29.68,West,265,0.0,0.0,36,0.00,,---,0.35,VWS V14.01,2013-10-07 18:37:00,
2013-10-07 14:42:00,54.0,27.6,29.68,West,262,3.6,3.6,36,0.00,,---,0.35,VWS V14.01,2013-10-07 18:42:00,
2013-10-07 14:47:00,55.0,28.6,29.68,SW,230,2.2,5.4,36,0.00,,---,0.35,VWS V14.01,2013-10-07 18:47:00,
2013-10-07 14:52:00,54.5,28.1,29.68,NE,44,0.0,0.0,36,0.00,,---,0.35,VWS V14.01,2013-10-07 18:52:00,
2013-10-07 14:57:00,54.1,27.8,29.68,West,263,0.0,0.0,36,0.00,,---,0.35,VWS V14.01,2013-10-07 18:57:00,
2013-10-07 15:02:00,53.8,27.5,29.71,SW,230,4.0,4.0,36,0.00,,---,0.35,VWS V14.01,2013-10-07 19:02:00,
2013-10-07 15:07:00,53.1,26.8,29.71,WSW,257,0.0,4.9,36,0.00,,---,0.35,VWS V14.01,2013-10-07 19:07:00,
2013-10-07 15:12:00,53.1,26.8,29.71,SW,220,0.0,0.0,36,0.00,,---,0.35,VWS V14.01,2013-10-07 19:12:00,
2013-10-07 15:17:00,53.2,27.0,29.71,WNW,289,4.0,4.9,36,0.00,,---,0.35,VWS V14.01,2013-10-07 19:17:00,
2013-10-07 15:22:00,53.1,26.8,29.71,North,4,0.0,2.7,36,0.00,,---,0.35,VWS V14.01,2013-10-07 19:22:00,
2013-10-07 15:27:00,53.1,26.8,29.71,North,353,0.0,4.0,36,0.00,,---,0.35,VWS V14.01,2013-10-07 19:27:00,
2013-10-07 15:32:00,53.4,27.1,29.71,NW,304,0.0,0.0,36,0.00,,---,0.35,VWS V14.01,2013-10-07 19:32:00,
2013-10-07 15:37:00,53.4,27.1,29.71,WNW,292,2.7,4.0,36,0.00,,---,0.35,VWS V14.01,2013-10-07 19:37:00,
2013-10-07 15:42:00,53.2,27.0,29.71,North,349,0.0,0.0,36,0.00,,---,0.35,VWS V14.01,2013-10-07 19:42:00,
2013-10-07 15:47:00,53.1,26.8,29.74,West,262,3.6,7.2,36,0.00,,---,0.35,VWS V14.01,2013-10-07 19:47:00,
2013-10-07 15:52:00,53.1,26.8,29.74,North,10,4.9,4.9,36,0.00,,---,0.35,VWS V14.01,2013-10-07 19:52:00,
2013-10-07 15:57:00,53.6,27.3,29.74,NNW,339,2.7,4.0,36,0.00,,---,0.35,VWS V14.01,2013-10-07 19:57:00,
2013-10-07 16:02:00,53.2,27.0,29.74,East,86,0.0,0.0,36,0.00,,---,0.35,VWS V14.01,2013-10-07 20:02:00,
2013-10-07 16:07:00,53.4,27.1,29.74,West,271,2.2,4.0,36,0.00,,---,0.35,VWS V14.01,2013-10-07 20:07:00,
2013-10-07 16:12:00,55.0,28.6,29.74,NNE,29,2.7,3.6,36,0.00,,---,0.35,VWS V14.01,2013-10-07 20:12:00,
2013-10-07 16:17:00,55.6,28.4,29.74,WSW,256,0.0,0.0,35,0.00,,---,0.35,VWS V14.01,2013-10-07 20:17:00,
2013-10-07 16:22:00,55.0,28.6,29.74,North,4,4.0,4.0,36,0.00,,---,0.35,VWS V14.01,2013-10-07 20:22:00,
2013-10-07 16:27:00,55.0,28.6,29.74,WSW,237,3.6,5.4,36,0.00,,---,0.35,VWS V14.01,2013-10-07 20:27:00,
2013-10-07 16:32:00,54.5,28.1,29.74,SW,236,0.0,3.1,36,0.00,,---,0.35,VWS V14.01,2013-10-07 20:32:00,
2013-10-07 16:37:00,54.1,27.8,29.74,East,83,0.0,0.0,36,0.00,,---,0.35,VWS V14.01,2013-10-07 20:37:00,
2013-10-07 16:42:00,54.5,28.1,29.74,West,263,4.9,8.3,36,0.00,,---,0.35,VWS V14.01,2013-10-07 20:42:00,
2013-10-07 16:47:00,54.3,28.0,29.74,WSW,248,3.1,4.0,36,0.00,,---,0.35,VWS V14.01,2013-10-07 20:47:00,
2013-10-07 16:52:00,54.0,27.6,29.74,West,272,3.1,4.0,36,0.00,,---,0.35,VWS V14.01,2013-10-07 20:52:00,
2013-10-07 16:57:00,54.7,28.3,29.74,WSW,242,0.0,0.0,36,0.00,,---,0.35,VWS V14.01,2013-10-07 20:57:00,
2013-10-07 17:02:00,55.2,28.8,29.74,SSW,212,3.6,3.6,36,0.00,,---,0.35,VWS V14.01,2013-10-07 21:02:00,
2013-10-07 17:07:00,55.0,28.6,29.74,SW,234,3.6,6.3,36,0.00,,---,0.35,VWS V14.01,2013-10-07 21:07:00,
2013-10-07 17:12:00,55.2,28.8,29.74,NNE,16,0.0,0.0,36,0.00,,---,0.35,VWS V14.01,2013-10-07 21:12:00,
2013-10-07 17:17:00,54.7,28.3,29.74,West,281,2.2,7.6,36,0.00,,---,0.35,VWS V14.01,2013-10-07 21:17:00,
2013-10-07 17:22:00,54.5,28.1,29.74,North,0,2.2,2.2,36,0.00,,---,0.35,VWS V14.01,2013-10-07 21:22:00,
2013-10-07 17:27:00,54.1,27.8,29.74,WNW,289,2.2,3.1,36,0.00,,---,0.35,VWS V14.01,2013-10-07 21:27:00,
2013-10-07 17:32:00,53.6,27.3,29.74,SSE,157,2.2,2.7,36,0.00,,---,0.35,VWS V14.01,2013-10-07 21:32:00,
2013-10-07 17:37:00,53.2,27.0,29.74,South,184,0.0,0.0,36,0.00,,---,0.35,VWS V14.01,2013-10-07 21:37:00,
2013-10-07 17:42:00,53.1,26.8,29.74,NNW,331,0.0,2.2,36,0.00,,---,0.35,VWS V14.01,2013-10-07 21:42:00,
2013-10-07 17:47:00,52.9,26.7,29.77,North,4,2.2,2.7,36,0.00,,---,0.35,VWS V14.01,2013-10-07 21:47:00,
2013-10-07 17:52:00,52.5,26.4,29.77,West,276,2.7,3.1,36,0.00,,---,0.35,VWS V14.01,2013-10-07 21:52:00,
2013-10-07 17:57:00,52.7,26.5,29.77,NNW,337,2.7,4.5,36,0.00,,---,0.35,VWS V14.01,2013-10-07 21:57:00,
2013-10-07 18:02:00,53.1,26.8,29.77,SW,216,0.0,0.0,36,0.00,,---,0.35,VWS V14.01,2013-10-07 22:02:00,
2013-10-07 18:07:00,53.1,26.8,29.77,WSW,239,0.0,0.0,36,0.00,,---,0.35,VWS V14.01,2013-10-07 22:07:00,
2013-10-07 18:12:00,53.1,26.8,29.77,NNW,344,3.1,3.1,36,0.00,,---,0.35,VWS V14.01,2013-10-07 22:12:00,
2013-10-07 18:17:00,52.9,26.7,29.77,SW,227,0.0,2.2,36,0.00,,---,0.35,VWS V14.01,2013-10-07 22:17:00,
2013-10-07 18:22:00,52.3,26.2,29.77,West,263,0.0,0.0,36,0.00,,---,0.35,VWS V14.01,2013-10-07 22:22:00,
2013-10-07 18:27:00,52.0,25.9,29.77,NE,37,7.6,7.6,36,0.00,,---,0.35,VWS V14.01,2013-10-07 22:27:00,
2013-10-07 18:32:00,51.8,25.7,29.77,WNW,301,0.0,3.1,36,0.00,,---,0.35,VWS V14.01,2013-10-07 22:32:00,
2013-10-07 18:37:00,51.4,25.4,29.77,NW,310,0.0,0.0,36,0.00,,---,0.35,VWS V14.01,2013-10-07 22:37:00,
2013-10-07 18:42:00,50.9,24.9,29.77,NW,310,0.0,0.0,36,0.00,,---,0.35,VWS V14.01,2013-10-07 22:42:00,
2013-10-07 18:47:00,50.4,24.4,29.80,West,280,0.0,0.0,36,0.00,,---,0.35,VWS V14.01,2013-10-07 22:47:00,
2013-10-07 18:52:00,50.0,24.1,29.80,West,280,0.0,0.0,36,0.00,,---,0.35,VWS V14.01,2013-10-07 22:52:00,
2013-10-07 18:57:00,49.5,24.3,29.80,WNW,287,0.0,0.0,37,0.00,,---,0.35,VWS V14.01,2013-10-07 22:57:00,
2013-10-07 19:02:00,49.1,24.0,29.80,NNE,28,0.0,0.0,37,0.00,,---,0.35,VWS V14.01,2013-10-07 23:02:00,
2013-10-07 19:07:00,48.9,23.8,29.80,North,357,0.0,0.0,37,0.00,,---,0.35,VWS V14.01,2013-10-07 23:07:00,
2013-10-07 19:12:00,48.7,23.6,29.80,North,11,0.0,0.0,37,0.00,,---,0.35,VWS V14.01,2013-10-07 23:12:00,
2013-10-07 19:17:00,48.6,23.5,29.80,NNW,333,0.0,0.0,37,0.00,,---,0.35,VWS V14.01,2013-10-07 23:17:00,
2013-10-07 19:22:00,48.4,23.3,29.80,West,261,0.0,3.6,37,0.00,,---,0.35,VWS V14.01,2013-10-07 23:22:00,
2013-10-07 19:27:00,48.0,23.0,29.80,West,261,0.0,0.0,37,0.00,,---,0.35,VWS V14.01,2013-10-07 23:27:00,
2013-10-07 19:32:00,47.8,22.9,29.80,West,261,0.0,0.0,37,0.00,,---,0.35,VWS V14.01,2013-10-07 23:32:00,
2013-10-07 19:37:00,47.5,22.5,29.80,WNW,295,0.0,0.0,37,0.00,,---,0.35,VWS V14.01,2013-10-07 23:37:00,
2013-10-07 19:42:00,47.3,22.4,29.80,WNW,294,0.0,0.0,37,0.00,,---,0.35,VWS V14.01,2013-10-07 23:42:00,
2013-10-07 19:47:00,47.1,22.2,29.83,WNW,295,0.0,0.0,37,0.00,,---,0.35,VWS V14.01,2013-10-07 23:47:00,
2013-10-07 19:52:00,46.9,22.0,29.83,WNW,303,0.0,0.0,37,0.00,,---,0.35,VWS V14.01,2013-10-07 23:52:00,
2013-10-07 19:57:00,46.9,22.0,29.83,WNW,303,0.0,0.0,37,0.00,,---,0.35,VWS V14.01,2013-10-07 23:57:00,
2013-10-07 20:02:00,46.8,21.9,29.83,NW,313,0.0,0.0,37,0.00,,---,0.35,VWS V14.01,2013-10-08 00:02:00,
2013-10-07 20:07:00,46.8,21.9,29.83,NW,318,0.0,0.0,37,0.00,,---,0.35,VWS V14.01,2013-10-08 00:07:00,
2013-10-07 20:12:00,46.8,21.9,29.83,NW,318,0.0,0.0,37,0.00,,---,0.35,VWS V14.01,2013-10-08 00:12:00,
2013-10-07 20:17:00,46.6,21.7,29.83,NW,313,0.0,0.0,37,0.00,,---,0.35,VWS V14.01,2013-10-08 00:17:00,
2013-10-07 20:22:00,46.6,21.7,29.83,NW,313,0.0,0.0,37,0.00,,---,0.35,VWS V14.01,2013-10-08 00:22:00,
2013-10-07 20:27:00,46.4,21.6,29.83,NW,313,0.0,0.0,37,0.00,,---,0.35,VWS V14.01,2013-10-08 00:27:00,
2013-10-07 20:32:00,46.4,21.6,29.83,WNW,303,0.0,0.0,37,0.00,,---,0.35,VWS V14.01,2013-10-08 00:32:00,
2013-10-07 20:37:00,46.2,22.0,29.83,West,272,0.0,0.0,38,0.00,,---,0.35,VWS V14.01,2013-10-08 00:37:00,
2013-10-07 20:42:00,46.0,21.9,29.83,West,272,0.0,0.0,38,0.00,,---,0.35,VWS V14.01,2013-10-08 00:42:00,
2013-10-07 20:47:00,45.9,21.7,29.83,NW,322,0.0,0.0,38,0.00,,---,0.35,VWS V14.01,2013-10-08 00:47:00,
2013-10-07 20:52:00,45.9,21.7,29.83,NW,322,0.0,0.0,38,0.00,,---,0.35,VWS V14.01,2013-10-08 00:52:00,
2013-10-07 20:57:00,45.7,21.5,29.83,NW,322,0.0,0.0,38,0.00,,---,0.35,VWS V14.01,2013-10-08 00:57:00,
2013-10-07 21:02:00,45.7,21.5,29.86,NW,322,0.0,0.0,38,0.00,,---,0.35,VWS V14.01,2013-10-08 01:02:00,
2013-10-07 21:07:00,45.5,21.4,29.86,NW,322,0.0,0.0,38,0.00,,---,0.35,VWS V14.01,2013-10-08 01:07:00,
2013-10-07 21:12:00,45.3,21.2,29.86,NW,322,0.0,0.0,38,0.00,,---,0.35,VWS V14.01,2013-10-08 01:12:00,
2013-10-07 21:17:00,45.1,21.1,29.86,NW,322,0.0,0.0,38,0.00,,---,0.35,VWS V14.01,2013-10-08 01:17:00,
2013-10-07 21:22:00,45.3,21.2,29.86,WNW,295,0.0,0.0,38,0.00,,---,0.35,VWS V14.01,2013-10-08 01:22:00,
2013-10-07 21:27:00,45.1,21.1,29.86,WNW,295,0.0,0.0,38,0.00,,---,0.35,VWS V14.01,2013-10-08 01:27:00,
2013-10-07 21:32:00,45.1,21.1,29.86,WNW,295,0.0,0.0,38,0.00,,---,0.35,VWS V14.01,2013-10-08 01:32:00,
2013-10-07 21:37:00,45.0,20.9,29.86,WNW,295,0.0,0.0,38,0.00,,---,0.35,VWS V14.01,2013-10-08 01:37:00,
2013-10-07 21:42:00,45.0,20.9,29.86,WNW,295,0.0,0.0,38,0.00,,---,0.35,VWS V14.01,2013-10-08 01:42:00,
2013-10-07 21:47:00,45.0,20.9,29.86,WNW,295,0.0,0.0,38,0.00,,---,0.35,VWS V14.01,2013-10-08 01:47:00,
2013-10-07 21:52:00,44.8,20.7,29.86,WNW,295,0.0,0.0,38,0.00,,---,0.35,VWS V14.01,2013-10-08 01:52:00,
2013-10-07 21:57:00,44.8,20.7,29.86,WNW,295,0.0,0.0,38,0.00,,---,0.35,VWS V14.01,2013-10-08 01:57:00,
2013-10-07 22:02:00,44.8,20.7,29.86,WNW,295,0.0,0.0,38,0.00,,---,0.35,VWS V14.01,2013-10-08 02:02:00,
2013-10-07 22:07:00,44.6,20.6,29.86,WNW,295,0.0,0.0,38,0.00,,---,0.35,VWS V14.01,2013-10-08 02:07:00,
2013-10-07 22:12:00,44.6,20.6,29.86,WNW,295,0.0,0.0,38,0.00,,---,0.35,VWS V14.01,2013-10-08 02:12:00,
2013-10-07 22:17:00,44.4,20.4,29.89,WNW,295,0.0,0.0,38,0.00,,---,0.35,VWS V14.01,2013-10-08 02:17:00,
2013-10-07 22:22:00,44.6,20.6,29.89,WNW,295,0.0,0.0,38,0.00,,---,0.35,VWS V14.01,2013-10-08 02:22:00,
2013-10-07 22:27:00,44.2,20.3,29.89,WNW,295,0.0,0.0,38,0.00,,---,0.35,VWS V14.01,2013-10-08 02:27:00,
2013-10-07 22:32:00,44.1,20.1,29.89,WNW,295,0.0,0.0,38,0.00,,---,0.35,VWS V14.01,2013-10-08 02:32:00,
2013-10-07 22:37:00,44.1,20.1,29.89,WNW,295,0.0,0.0,38,0.00,,---,0.35,VWS V14.01,2013-10-08 02:37:00,
2013-10-07 22:42:00,44.1,20.1,29.89,WNW,293,0.0,0.0,38,0.00,,---,0.35,VWS V14.01,2013-10-08 02:42:00,
2013-10-07 22:47:00,44.1,20.1,29.89,WNW,293,0.0,0.0,38,0.00,,---,0.35,VWS V14.01,2013-10-08 02:47:00,
2013-10-07 22:52:00,44.1,20.1,29.89,WNW,293,0.0,0.0,38,0.00,,---,0.35,VWS V14.01,2013-10-08 02:52:00,
2013-10-07 22:57:00,43.9,19.9,29.89,WNW,293,0.0,0.0,38,0.00,,---,0.35,VWS V14.01,2013-10-08 02:57:00,
2013-10-07 23:02:00,43.7,19.8,29.89,WNW,293,0.0,0.0,38,0.00,,---,0.35,VWS V14.01,2013-10-08 03:02:00,
2013-10-07 23:07:00,43.7,19.8,29.89,WNW,293,0.0,0.0,38,0.00,,---,0.35,VWS V14.01,2013-10-08 03:07:00,
2013-10-07 23:12:00,43.5,19.6,29.89,WNW,293,0.0,0.0,38,0.00,,---,0.35,VWS V14.01,2013-10-08 03:12:00,
2013-10-07 23:17:00,43.5,19.6,29.89,WNW,293,0.0,0.0,38,0.00,,---,0.35,VWS V14.01,2013-10-08 03:17:00,
2013-10-07 23:22:00,43.5,19.6,29.89,NW,304,0.0,0.0,38,0.00,,---,0.35,VWS V14.01,2013-10-08 03:22:00,
2013-10-07 23:27:00,43.7,19.8,29.89,NW,304,0.0,0.0,38,0.00,,---,0.35,VWS V14.01,2013-10-08 03:27:00,
2013-10-07 23:32:00,43.5,19.6,29.89,NW,304,0.0,0.0,38,0.00,,---,0.35,VWS V14.01,2013-10-08 03:32:00,
2013-10-07 23:37:00,43.3,19.5,29.89,NW,304,0.0,0.0,38,0.00,,---,0.35,VWS V14.01,2013-10-08 03:37:00,
2013-10-07 23:42:00,43.3,19.5,29.89,NW,304,0.0,0.0,38,0.00,,---,0.35,VWS V14.01,2013-10-08 03:42:00,
2013-10-07 23:47:00,43.3,19.5,29.89,NW,304,0.0,0.0,38,0.00,,---,0.35,VWS V14.01,2013-10-08 03:47:00,
2013-10-07 23:52:00,43.3,19.5,29.89,NW,304,0.0,0.0,38,0.00,,---,0.35,VWS V14.01,2013-10-08 03:52:00,
2013-10-07 23:57:00,43.3,19.5,29.89,NW,324,0.0,3.1,38,0.00,,---,0.35,VWS V14.01,2013-10-08 03:57:00,